Time,TemperatureF,DewpointF,PressureIn,WindDirection,WindDirectionDegrees,WindSpeedMPH,WindSpeedGustMPH,Humidity,HourlyPrecipIn,Conditions,Clouds,dailyrainin,SoftwareType,DateUTC
2013-03-20 00:07:00,21.3,20.0,29.70,NW,315,0.0,-999.0,94,-99.99,,,0.00,weatherlink.com 1.10,2013-03-20 04:07:00,
2013-03-20 00:22:00,21.4,20.0,29.70,NW,315,0.0,-999.0,94,-99.99,,,0.00,weatherlink.com 1.10,2013-03-20 04:22:00,
2013-03-20 00:37:00,21.4,20.0,29.69,NW,315,0.0,-999.0,94,-99.99,,,0.00,weatherlink.com 1.10,2013-03-20 04:37:00,
2013-03-20 00:52:00,21.4,20.0,29.69,NW,315,0.0,-999.0,94,-99.99,,,0.00,weatherlink.com 1.10,2013-03-20 04:52:00,
2013-03-20 01:07:00,21.4,20.0,29.68,NW,315,0.0,-999.0,94,-99.99,,,0.00,weatherlink.com 1.10,2013-03-20 05:07:00,
2013-03-20 01:22:00,21.3,20.0,29.68,NW,315,0.0,-999.0,94,-99.99,,,0.00,weatherlink.com 1.10,2013-03-20 05:22:00,
2013-03-20 01:37:00,21.2,20.0,29.68,NW,315,0.0,-999.0,94,-99.99,,,0.00,weatherlink.com 1.10,2013-03-20 05:37:00,
2013-03-20 01:52:00,21.1,20.0,29.68,NW,315,0.0,-999.0,94,-99.99,,,0.00,weatherlink.com 1.10,2013-03-20 05:52:00,
2013-03-20 02:07:00,21.1,20.0,29.68,NW,315,0.0,-999.0,94,-99.99,,,0.00,weatherlink.com 1.10,2013-03-20 06:07:00,
2013-03-20 02:22:00,21.1,20.0,29.67,NW,315,0.0,-999.0,94,-99.99,,,0.00,weatherlink.com 1.10,2013-03-20 06:22:00,
2013-03-20 02:37:00,21.0,20.0,29.66,NW,315,0.0,-999.0,94,-99.99,,,0.00,weatherlink.com 1.10,2013-03-20 06:37:00,
2013-03-20 02:52:00,20.7,19.0,29.66,NW,315,0.0,-999.0,93,-99.99,,,0.00,weatherlink.com 1.10,2013-03-20 06:52:00,
2013-03-20 03:07:00,20.4,19.0,29.65,NW,315,0.0,-999.0,94,-99.99,,,0.00,weatherlink.com 1.10,2013-03-20 07:07:00,
2013-03-20 03:22:00,20.3,19.0,29.65,NW,315,0.0,-999.0,93,-99.99,,,0.00,weatherlink.com 1.10,2013-03-20 07:22:00,
2013-03-20 03:37:00,20.1,18.0,29.65,NW,315,0.0,-999.0,93,-99.99,,,0.00,weatherlink.com 1.10,2013-03-20 07:37:00,
2013-03-20 03:52:00,19.9,19.0,29.65,NW,315,0.0,-999.0,94,-99.99,,,0.00,weatherlink.com 1.10,2013-03-20 07:52:00,
2013-03-20 04:07:00,20.0,19.0,29.64,NW,315,0.0,-999.0,94,-99.99,,,0.00,weatherlink.com 1.10,2013-03-20 08:07:00,
2013-03-20 04:22:00,19.9,19.0,29.64,NW,315,0.0,-999.0,94,-99.99,,,0.00,weatherlink.com 1.10,2013-03-20 08:22:00,
2013-03-20 04:37:00,19.9,19.0,29.64,NW,315,0.0,-999.0,94,-99.99,,,0.00,weatherlink.com 1.10,2013-03-20 08:37:00,
2013-03-20 04:52:00,19.9,19.0,29.64,NW,315,0.0,-999.0,94,-99.99,,,0.00,weatherlink.com 1.10,2013-03-20 08:52:00,
2013-03-20 05:07:00,19.6,18.0,29.64,NW,315,0.0,-999.0,93,-99.99,,,0.00,weatherlink.com 1.10,2013-03-20 09:07:00,
2013-03-20 05:22:00,19.1,17.0,29.64,NW,315,0.0,-999.0,93,-99.99,,,0.00,weatherlink.com 1.10,2013-03-20 09:22:00,
2013-03-20 05:37:00,18.6,17.0,29.64,NW,315,0.0,-999.0,93,-99.99,,,0.00,weatherlink.com 1.10,2013-03-20 09:37:00,
2013-03-20 05:52:00,18.2,17.0,29.65,NW,315,0.0,-999.0,93,-99.99,,,0.00,weatherlink.com 1.10,2013-03-20 09:52:00,
2013-03-20 06:07:00,18.6,17.0,29.65,NW,315,0.0,-999.0,94,-99.99,,,0.00,weatherlink.com 1.10,2013-03-20 10:07:00,
2013-03-20 06:22:00,18.8,17.0,29.65,NW,315,0.0,-999.0,94,-99.99,,,0.00,weatherlink.com 1.10,2013-03-20 10:22:00,
2013-03-20 06:37:00,19.1,18.0,29.65,NW,315,0.0,-999.0,95,-99.99,,,0.00,weatherlink.com 1.10,2013-03-20 10:37:00,
2013-03-20 06:53:00,19.3,18.0,29.65,NW,315,0.0,-999.0,94,-99.99,,,0.00,weatherlink.com 1.10,2013-03-20 10:53:00,
2013-03-20 07:08:00,18.8,17.0,29.65,NW,315,0.0,-999.0,93,-99.99,,,0.00,weatherlink.com 1.10,2013-03-20 11:08:00,
2013-03-20 07:23:00,18.6,17.0,29.66,NW,315,0.0,-999.0,93,-99.99,,,0.00,weatherlink.com 1.10,2013-03-20 11:23:00,
2013-03-20 07:38:00,19.2,18.0,29.65,NW,315,0.0,-999.0,94,-99.99,,,0.00,weatherlink.com 1.10,2013-03-20 11:38:00,
2013-03-20 07:53:00,20.2,19.0,29.65,NW,315,0.0,-999.0,95,-99.99,,,0.00,weatherlink.com 1.10,2013-03-20 11:53:00,
2013-03-20 08:08:00,20.9,20.0,29.65,NW,315,0.0,-999.0,95,-99.99,,,0.00,weatherlink.com 1.10,2013-03-20 12:08:00,
2013-03-20 08:23:00,21.5,20.0,29.66,NW,315,0.0,-999.0,94,-99.99,,,0.00,weatherlink.com 1.10,2013-03-20 12:23:00,
2013-03-20 08:38:00,21.9,20.0,29.66,NW,315,0.0,-999.0,93,-99.99,,,0.00,weatherlink.com 1.10,2013-03-20 12:38:00,
2013-03-20 08:53:00,22.3,21.0,29.65,NW,315,0.0,-999.0,94,-99.99,,,0.00,weatherlink.com 1.10,2013-03-20 12:53:00,
2013-03-20 09:08:00,22.9,22.0,29.66,NW,315,0.0,-999.0,94,-99.99,,,0.00,weatherlink.com 1.10,2013-03-20 13:08:00,
2013-03-20 09:23:00,23.6,22.0,29.66,WNW,284,0.0,-999.0,92,-99.99,,,0.00,weatherlink.com 1.10,2013-03-20 13:23:00,
2013-03-20 09:38:00,24.2,22.0,29.66,SSE,159,0.0,-999.0,91,-99.99,,,0.00,weatherlink.com 1.10,2013-03-20 13:38:00,
2013-03-20 09:53:00,24.8,22.0,29.65,NW,311,0.0,-999.0,88,-99.99,,,0.00,weatherlink.com 1.10,2013-03-20 13:53:00,
2013-03-20 10:08:00,25.3,23.0,29.65,West,267,0.0,-999.0,89,-99.99,,,0.00,weatherlink.com 1.10,2013-03-20 14:08:00,
2013-03-20 10:23:00,25.2,22.0,29.66,South,189,2.0,-999.0,88,-99.99,,,0.00,weatherlink.com 1.10,2013-03-20 14:23:00,
2013-03-20 10:38:00,25.4,22.0,29.66,SW,215,0.0,-999.0,87,-99.99,,,0.00,weatherlink.com 1.10,2013-03-20 14:38:00,
2013-03-20 10:53:00,25.6,23.0,29.66,SSE,148,0.0,-999.0,90,-99.99,,,0.00,weatherlink.com 1.10,2013-03-20 14:53:00,
2013-03-20 11:08:00,24.9,22.0,29.66,NNW,334,0.0,-999.0,89,-99.99,,,0.00,weatherlink.com 1.10,2013-03-20 15:08:00,
2013-03-20 11:23:00,24.9,23.0,29.66,NNE,15,0.0,-999.0,91,-99.99,,,0.00,weatherlink.com 1.10,2013-03-20 15:23:00,
2013-03-20 11:38:00,24.9,22.0,29.66,NW,308,0.0,-999.0,90,-99.99,,,0.00,weatherlink.com 1.10,2013-03-20 15:38:00,
2013-03-20 11:53:00,25.8,23.0,29.66,SW,218,0.0,-999.0,88,-99.99,,,0.00,weatherlink.com 1.10,2013-03-20 15:53:00,
2013-03-20 12:08:00,26.7,23.0,29.65,West,263,0.0,-999.0,84,-99.99,,,0.00,weatherlink.com 1.10,2013-03-20 16:08:00,
2013-03-20 12:23:00,27.6,23.0,29.65,NNW,335,0.0,-999.0,83,-99.99,,,0.00,weatherlink.com 1.10,2013-03-20 16:23:00,
2013-03-20 12:38:00,26.9,22.0,29.65,SW,236,1.0,-999.0,82,-99.99,,,0.00,weatherlink.com 1.10,2013-03-20 16:38:00,
2013-03-20 12:53:00,26.9,22.0,29.65,West,262,1.0,-999.0,81,-99.99,,,0.00,weatherlink.com 1.10,2013-03-20 16:53:00,
2013-03-20 13:08:00,27.0,23.0,29.65,WNW,298,1.0,-999.0,83,-99.99,,,0.00,weatherlink.com 1.10,2013-03-20 17:08:00,
2013-03-20 13:23:00,27.4,23.0,29.65,SSW,200,4.0,-999.0,83,-99.99,,,0.00,weatherlink.com 1.10,2013-03-20 17:23:00,
2013-03-20 13:38:00,28.5,23.0,29.64,NW,320,0.0,-999.0,80,-99.99,,,0.00,weatherlink.com 1.10,2013-03-20 17:38:00,
2013-03-20 13:53:00,28.7,24.0,29.64,SSW,196,0.0,-999.0,81,-99.99,,,0.00,weatherlink.com 1.10,2013-03-20 17:53:00,
2013-03-20 14:08:00,27.9,23.0,29.64,WSW,247,1.0,-999.0,82,-99.99,,,0.00,weatherlink.com 1.10,2013-03-20 18:08:00,
2013-03-20 14:23:00,28.6,24.0,29.63,NW,319,0.0,-999.0,83,-99.99,,,0.00,weatherlink.com 1.10,2013-03-20 18:23:00,
2013-03-20 14:38:00,28.9,22.0,29.63,SW,234,0.0,-999.0,75,-99.99,,,0.00,weatherlink.com 1.10,2013-03-20 18:38:00,
2013-03-20 14:53:00,29.1,22.0,29.63,NW,308,1.0,-999.0,74,-99.99,,,0.00,weatherlink.com 1.10,2013-03-20 18:53:00,
2013-03-20 15:08:00,29.1,23.0,29.63,West,260,3.0,-999.0,78,-99.99,,,0.00,weatherlink.com 1.10,2013-03-20 19:08:00,
2013-03-20 15:23:00,29.6,24.0,29.62,South,186,0.0,-999.0,78,-99.99,,,0.00,weatherlink.com 1.10,2013-03-20 19:23:00,
2013-03-20 15:38:00,29.7,23.0,29.63,WNW,299,0.0,-999.0,75,-99.99,,,0.00,weatherlink.com 1.10,2013-03-20 19:38:00,
2013-03-20 15:53:00,29.6,24.0,29.62,West,271,2.0,-999.0,81,-99.99,,,0.00,weatherlink.com 1.10,2013-03-20 19:53:00,
2013-03-20 16:08:00,29.5,24.0,29.63,NW,306,0.0,-999.0,81,-99.99,,,0.00,weatherlink.com 1.10,2013-03-20 20:08:00,
2013-03-20 16:23:00,29.7,24.0,29.62,SSW,205,0.0,-999.0,78,-99.99,,,0.00,weatherlink.com 1.10,2013-03-20 20:23:00,
2013-03-20 16:38:00,29.8,25.0,29.62,SW,218,1.0,-999.0,82,-99.99,,,0.00,weatherlink.com 1.10,2013-03-20 20:38:00,
2013-03-20 16:53:00,28.9,26.0,29.63,SSW,192,0.0,-999.0,87,-99.99,,,0.00,weatherlink.com 1.10,2013-03-20 20:53:00,
2013-03-20 17:08:00,28.2,26.0,29.63,SSW,200,0.0,-999.0,91,-99.99,,,0.00,weatherlink.com 1.10,2013-03-20 21:08:00,
2013-03-20 17:23:00,28.0,26.0,29.63,SSW,199,0.0,-999.0,93,-99.99,,,0.00,weatherlink.com 1.10,2013-03-20 21:23:00,
2013-03-20 17:38:00,28.3,27.0,29.63,SSW,202,1.0,-999.0,93,-99.99,,,0.00,weatherlink.com 1.10,2013-03-20 21:38:00,
2013-03-20 17:53:00,28.5,27.0,29.63,SSW,204,0.0,-999.0,92,-99.99,,,0.00,weatherlink.com 1.10,2013-03-20 21:53:00,
2013-03-20 18:09:00,28.5,27.0,29.64,South,173,1.0,-999.0,93,-99.99,,,0.00,weatherlink.com 1.10,2013-03-20 22:09:00,
2013-03-20 18:23:00,28.6,26.0,29.64,South,173,2.0,-999.0,91,-99.99,,,0.00,weatherlink.com 1.10,2013-03-20 22:23:00,
2013-03-20 18:38:00,28.7,26.0,29.64,NNW,344,0.0,-999.0,90,-99.99,,,0.00,weatherlink.com 1.10,2013-03-20 22:38:00,
2013-03-20 18:53:00,28.5,26.0,29.66,ENE,69,0.0,-999.0,89,-99.99,,,0.00,weatherlink.com 1.10,2013-03-20 22:53:00,
2013-03-20 19:08:00,27.9,25.0,29.67,WNW,301,1.0,-999.0,90,-99.99,,,0.00,weatherlink.com 1.10,2013-03-20 23:08:00,
2013-03-20 19:23:00,27.6,25.0,29.67,WNW,301,0.0,-999.0,90,-99.99,,,0.00,weatherlink.com 1.10,2013-03-20 23:23:00,
2013-03-20 19:38:00,27.7,26.0,29.67,SSW,198,0.0,-999.0,91,-99.99,,,0.00,weatherlink.com 1.10,2013-03-20 23:38:00,
2013-03-20 19:53:00,27.6,26.0,29.67,South,187,0.0,-999.0,93,-99.99,,,0.00,weatherlink.com 1.10,2013-03-20 23:53:00,
2013-03-20 20:08:00,27.4,26.0,29.68,SE,128,2.0,-999.0,93,-99.99,,,0.00,weatherlink.com 1.10,2013-03-21 00:08:00,
2013-03-20 20:23:00,27.2,26.0,29.68,SW,219,0.0,-999.0,93,-99.99,,,0.00,weatherlink.com 1.10,2013-03-21 00:23:00,
2013-03-20 20:38:00,27.1,25.0,29.68,NW,317,0.0,-999.0,93,-99.99,,,0.00,weatherlink.com 1.10,2013-03-21 00:38:00,
2013-03-20 20:53:00,27.1,25.0,29.69,SSW,205,1.0,-999.0,92,-99.99,,,0.00,weatherlink.com 1.10,2013-03-21 00:53:00,
2013-03-20 21:08:00,26.7,24.0,29.68,ESE,103,1.0,-999.0,88,-99.99,,,0.00,weatherlink.com 1.10,2013-03-21 01:08:00,
2013-03-20 21:23:00,26.2,23.0,29.69,SSW,196,0.0,-999.0,88,-99.99,,,0.00,weatherlink.com 1.10,2013-03-21 01:23:00,
2013-03-20 21:38:00,25.8,23.0,29.69,South,169,0.0,-999.0,87,-99.99,,,0.00,weatherlink.com 1.10,2013-03-21 01:38:00,
2013-03-20 21:53:00,25.1,22.0,29.69,South,169,0.0,-999.0,88,-99.99,,,0.00,weatherlink.com 1.10,2013-03-21 01:53:00,
2013-03-20 22:08:00,24.5,22.0,29.69,South,169,0.0,-999.0,88,-99.99,,,0.00,weatherlink.com 1.10,2013-03-21 02:08:00,
2013-03-20 22:23:00,24.0,21.0,29.69,South,169,0.0,-999.0,87,-99.99,,,0.00,weatherlink.com 1.10,2013-03-21 02:23:00,
2013-03-20 22:38:00,23.4,20.0,29.69,South,169,0.0,-999.0,87,-99.99,,,0.00,weatherlink.com 1.10,2013-03-21 02:38:00,
2013-03-20 22:53:00,23.0,21.0,29.69,South,169,1.0,-999.0,92,-99.99,,,0.00,weatherlink.com 1.10,2013-03-21 02:53:00,
2013-03-20 23:08:00,23.1,19.0,29.69,SSW,206,0.0,-999.0,83,-99.99,,,0.00,weatherlink.com 1.10,2013-03-21 03:08:00,
2013-03-20 23:24:00,22.6,19.0,29.69,SSW,205,0.0,-999.0,84,-99.99,,,0.00,weatherlink.com 1.10,2013-03-21 03:24:00,
2013-03-20 23:38:00,21.8,18.0,29.69,SSW,205,0.0,-999.0,85,-99.99,,,0.00,weatherlink.com 1.10,2013-03-21 03:38:00,
2013-03-20 23:54:00,22.4,18.0,29.69,SSW,196,0.0,-999.0,84,-99.99,,,0.00,weatherlink.com 1.10,2013-03-21 03:54:00,